• In Uzbekistan
  • List of Countries
  • For 7 days
  • Water Temperature
  • Satellite Maps
  • Weather Map
  • Weather Widgets
  • user-avatar
    Login

    Hourly Weather Idzhewan

    Today, 23 October, Monday

    Time Temperature Precipitation Wind Pressure Humidity
    00:00 +12°C° 0 mm 2 mps 691 mmHg 53%
    01:00 +12°C° 0 mm 2 mps 691 mmHg 53%
    02:00 +12°C° 0 mm 2 mps 691 mmHg 53%
    03:00 +11°C° 0 mm 3 mps 690 mmHg 52%
    04:00 +12°C° 0 mm 2 mps 691 mmHg 53%
    05:00 +12°C° 0 mm 2 mps 691 mmHg 54%
    06:00 +10°C° 0 mm 2 mps 691 mmHg 55%
    07:00 +13°C° 0 mm 2 mps 692 mmHg 51%
    08:00 +15°C° 0 mm 2 mps 692 mmHg 47%
    09:00 +16°C° 0 mm 3 mps 693 mmHg 43%
    10:00 +17°C° 0 mm 3 mps 693 mmHg 41%
    11:00 +18°C° 0 mm 3 mps 693 mmHg 38%
    12:00 +19°C° 0 mm 3 mps 693 mmHg 36%
    13:00 +19°C° 0 mm 3 mps 693 mmHg 36%
    14:00 +19°C° 0 mm 2 mps 693 mmHg 36%
    15:00 +19°C° 0 mm 2 mps 693 mmHg 36%
    16:00 +18°C° 0 mm 2 mps 693 mmHg 43%
    17:00 +16°C° 0 mm 1 mps 693 mmHg 49%
    18:00 +14°C° 0 mm 1 mps 694 mmHg 56%
    19:00 +14°C° 0 mm 1 mps 694 mmHg 59%
    20:00 +13°C° 0 mm 1 mps 694 mmHg 61%
    21:00 +12°C° 0 mm 1 mps 694 mmHg 63%
    22:00 +12°C° 0 mm 1 mps 694 mmHg 68%
    23:00 +11°C° 0 mm 1 mps 695 mmHg 73%

    Tomorrow, 24 October, Tuesday

    Time Temperature Precipitation Wind Pressure Humidity
    00:00 +11°C° 0 mm 1 mps 695 mmHg 78%
    01:00 +11°C° 0 mm 1 mps 695 mmHg 79%
    02:00 +11°C° 0 mm 1 mps 695 mmHg 80%
    03:00 +11°C° 0 mm 1 mps 695 mmHg 82%
    04:00 +11°C° 0 mm 1 mps 695 mmHg 81%
    05:00 +11°C° 0 mm 1 mps 695 mmHg 81%
    06:00 +10°C° 0 mm 1 mps 695 mmHg 80%
    07:00 +12°C° 0 mm 1 mps 695 mmHg 73%
    08:00 +13°C° 0 mm 1 mps 695 mmHg 66%
    09:00 +15°C° 0 mm 1 mps 695 mmHg 58%
    10:00 +16°C° 0 mm 2 mps 695 mmHg 54%
    11:00 +17°C° 0 mm 2 mps 695 mmHg 49%
    12:00 +18°C° 0 mm 2 mps 695 mmHg 44%
    13:00 +19°C° 0 mm 2 mps 694 mmHg 44%
    14:00 +19°C° 0 mm 2 mps 694 mmHg 44%
    15:00 +19°C° 0 mm 2 mps 694 mmHg 44%
    16:00 +17°C° 0 mm 2 mps 694 mmHg 50%
    17:00 +16°C° 0 mm 1 mps 694 mmHg 56%
    18:00 +14°C° 0 mm 1 mps 694 mmHg 61%
    19:00 +14°C° 0 mm 1 mps 694 mmHg 60%
    20:00 +14°C° 0 mm 1 mps 695 mmHg 58%
    21:00 +13°C° 0 mm 1 mps 695 mmHg 56%
    22:00 +13°C° 0 mm 1 mps 695 mmHg 56%
    23:00 +13°C° 0 mm 1 mps 695 mmHg 55%

    Day after tomorrow, 25 October, Wednesday

    Time Temperature Precipitation Wind Pressure Humidity
    00:00 +13°C° 0 mm 2 mps 695 mmHg 54%
    01:00 +12°C° 0 mm 2 mps 695 mmHg 54%
    02:00 +12°C° 0 mm 2 mps 695 mmHg 53%
    03:00 +12°C° 0 mm 2 mps 695 mmHg 53%
    04:00 +12°C° 0 mm 2 mps 696 mmHg 52%
    05:00 +12°C° 0 mm 2 mps 696 mmHg 52%
    06:00 +12°C° 0 mm 2 mps 696 mmHg 51%
    07:00 +14°C° 0 mm 2 mps 696 mmHg 46%
    08:00 +16°C° 0 mm 2 mps 696 mmHg 42%
    09:00 +18°C° 0 mm 2 mps 697 mmHg 37%
    10:00 +19°C° 0 mm 2 mps 697 mmHg 35%
    11:00 +21°C° 0 mm 3 mps 696 mmHg 33%
    12:00 +22°C° 0 mm 3 mps 696 mmHg 30%
    13:00 +22°C° 0 mm 3 mps 696 mmHg 30%
    14:00 +22°C° 0 mm 3 mps 696 mmHg 30%
    15:00 +22°C° 0 mm 3 mps 695 mmHg 30%
    16:00 +20°C° 0 mm 2 mps 695 mmHg 34%
    17:00 +18°C° 0 mm 2 mps 695 mmHg 38%
    18:00 +18°C° 0 mm 1 mps 695 mmHg 43%
    19:00 +16°C° 0 mm 1 mps 695 mmHg 43%
    20:00 +16°C° 0 mm 2 mps 695 mmHg 43%
    21:00 +15°C° 0 mm 2 mps 695 mmHg 43%
    22:00 +15°C° 0 mm 2 mps 695 mmHg 43%
    23:00 +15°C° 0 mm 2 mps 695 mmHg 44%

    26 October, Thursday

    Time Temperature Precipitation Wind Pressure Humidity
    00:00 +15°C° 0 mm 2 mps 695 mmHg 44%
    01:00 +14°C° 0 mm 2 mps 695 mmHg 44%
    02:00 +14°C° 0 mm 2 mps 695 mmHg 44%
    03:00 +14°C° 0 mm 2 mps 694 mmHg 44%
    04:00 +14°C° 0 mm 2 mps 694 mmHg 44%
    05:00 +13°C° 0 mm 2 mps 694 mmHg 44%
    06:00 +13°C° 0 mm 2 mps 694 mmHg 44%
    07:00 +15°C° 0 mm 2 mps 694 mmHg 40%
    08:00 +17°C° 0 mm 2 mps 694 mmHg 36%
    09:00 +19°C° 0 mm 3 mps 694 mmHg 32%
    10:00 +20°C° 0 mm 3 mps 694 mmHg 30%
    11:00 +21°C° 0 mm 4 mps 694 mmHg 29%
    12:00 +22°C° 0 mm 4 mps 693 mmHg 27%
    13:00 +22°C° 0 mm 4 mps 693 mmHg 27%
    14:00 +22°C° 0 mm 4 mps 693 mmHg 28%
    15:00 +22°C° 0 mm 3 mps 692 mmHg 29%
    16:00 +20°C° 0 mm 3 mps 692 mmHg 36%
    17:00 +17°C° 0 mm 2 mps 692 mmHg 43%
    18:00 +15°C° 0 mm 1 mps 692 mmHg 51%
    19:00 +15°C° 0 mm 1 mps 693 mmHg 53%
    20:00 +14°C° 0 mm 1 mps 693 mmHg 55%
    21:00 +14°C° 0 mm 1 mps 693 mmHg 57%
    22:00 +14°C° 0 mm 1 mps 693 mmHg 57%
    23:00 +14°C° 0 mm 1 mps 693 mmHg 58%

    27 October, Friday

    Time Temperature Precipitation Wind Pressure Humidity
    00:00 +13°C° 0 mm 1 mps 694 mmHg 59%
    01:00 +13°C° 0 mm 1 mps 694 mmHg 60%
    02:00 +13°C° 0 mm 1 mps 694 mmHg 62%
    03:00 +13°C° 0 mm 1 mps 694 mmHg 63%
    04:00 +13°C° 0 mm 1 mps 694 mmHg 66%
    05:00 +12°C° 0 mm 1 mps 694 mmHg 69%
    06:00 +12°C° 0 mm 1 mps 694 mmHg 72%
    07:00 +13°C° 0 mm 1 mps 695 mmHg 68%
    08:00 +14°C° 0 mm 1 mps 695 mmHg 64%
    09:00 +15°C° 0 mm 1 mps 696 mmHg 60%
    10:00 +16°C° 0 mm 2 mps 695 mmHg 58%
    11:00 +17°C° 0 mm 2 mps 695 mmHg 56%
    12:00 +17°C° 0 mm 2 mps 695 mmHg 54%
    13:00 +17°C° 0 mm 2 mps 695 mmHg 55%
    14:00 +17°C° 0 mm 2 mps 694 mmHg 57%
    15:00 +17°C° 0 mm 2 mps 694 mmHg 59%
    16:00 +16°C° 0 mm 2 mps 694 mmHg 66%
    17:00 +14°C° 0 mm 2 mps 694 mmHg 73%
    18:00 +13°C° 0 mm 1 mps 694 mmHg 80%
    19:00 +13°C° 0 mm 1 mps 694 mmHg 81%
    20:00 +13°C° 0 mm 1 mps 694 mmHg 81%
    21:00 +12°C° 0 mm 1 mps 694 mmHg 82%
    22:00 +12°C° 0 mm 1 mps 694 mmHg 82%
    23:00 +12°C° 0 mm 1 mps 693 mmHg 82%

    28 October, Saturday

    Time Temperature Precipitation Wind Pressure Humidity
    00:00 +11°C° 0 mm 1 mps 693 mmHg 82%
    01:00 +11°C° 0 mm 1 mps 693 mmHg 82%
    02:00 +11°C° 0 mm 1 mps 693 mmHg 82%
    03:00 +10°C° 0 mm 1 mps 693 mmHg 82%
    04:00 +10°C° 0 mm 1 mps 692 mmHg 80%
    05:00 +10°C° 0 mm 1 mps 692 mmHg 79%
    06:00 +10°C° 0 mm 1 mps 692 mmHg 77%
    07:00 +11°C° 0 mm 1 mps 692 mmHg 68%
    08:00 +13°C° 0 mm 2 mps 692 mmHg 59%
    09:00 +15°C° 0 mm 2 mps 693 mmHg 50%
    10:00 +16°C° 0 mm 3 mps 692 mmHg 46%
    11:00 +18°C° 0 mm 4 mps 692 mmHg 42%
    12:00 +19°C° 0 mm 5 mps 692 mmHg 37%
    13:00 +19°C° 0 mm 4 mps 691 mmHg 37%
    14:00 +19°C° 0 mm 4 mps 691 mmHg 37%
    15:00 +20°C° 0 mm 4 mps 690 mmHg 36%
    16:00 +18°C° 0 mm 3 mps 690 mmHg 42%
    17:00 +16°C° 0 mm 3 mps 690 mmHg 48%
    18:00 +15°C° 0 mm 2 mps 690 mmHg 54%
    19:00 +14°C° 0 mm 2 mps 690 mmHg 56%
    20:00 +14°C° 0 mm 2 mps 690 mmHg 58%
    21:00 +14°C° 0 mm 2 mps 690 mmHg 60%
    22:00 +14°C° 0 mm 2 mps 690 mmHg 60%
    23:00 +13°C° 0 mm 2 mps 689 mmHg 61%

    29 October, Sunday

    Time Temperature Precipitation Wind Pressure Humidity
    00:00 +13°C° 0 mm 2 mps 689 mmHg 62%
    01:00 +14°C° 0 mm 2 mps 689 mmHg 63%
    02:00 +14°C° 0 mm 2 mps 689 mmHg 63%
    03:00 +14°C° 0 mm 2 mps 689 mmHg 64%
    04:00 +14°C° 0 mm 2 mps 689 mmHg 65%
    05:00 +13°C° 0 mm 2 mps 689 mmHg 67%
    06:00 +13°C° 0 mm 2 mps 689 mmHg 68%
    07:00 +14°C° 0 mm 2 mps 689 mmHg 62%
    08:00 +16°C° 0 mm 2 mps 689 mmHg 57%
    09:00 +17°C° 0 mm 3 mps 689 mmHg 51%
    10:00 +18°C° 0 mm 3 mps 689 mmHg 47%
    11:00 +19°C° 0 mm 4 mps 689 mmHg 42%
    12:00 +20°C° 0 mm 5 mps 689 mmHg 38%
    13:00 +20°C° 0 mm 4 mps 688 mmHg 38%
    14:00 +20°C° 0 mm 4 mps 688 mmHg 39%
    15:00 +20°C° 0 mm 4 mps 687 mmHg 39%
    16:00 +18°C° 0 mm 3 mps 687 mmHg 44%
    17:00 +17°C° 0 mm 2 mps 687 mmHg 49%
    18:00 +15°C° 0 mm 1 mps 687 mmHg 54%
    19:00 +15°C° 0 mm 2 mps 687 mmHg 54%
    20:00 +14°C° 0 mm 2 mps 687 mmHg 55%
    21:00 +14°C° 0 mm 2 mps 687 mmHg 56%
    22:00 +14°C° 0 mm 2 mps 687 mmHg 56%
    23:00 +14°C° 0 mm 2 mps 687 mmHg 57%
    Show more